W7BL Weather Reports


time (UTC)temp
C
wind
direction
speed
KPH
gust
KPH
rain 1hr
cm
rain 24hr
cm
rain mn
cm
humidity
%
barometer
mb
20260505153003 15 128 1.6 8.0 0.00 0.00 0.00 61
20260505152500 15 86 1.6 8.0 0.00 0.00 0.00 61
20260505151955 18 101 4.8 6.4 0.00 0.00 0.00 55
20260505151451 17 229 4.8 9.7 0.00 0.00 0.00 55
20260505150949 17 235 14.5 17.7 0.00 0.00 0.00 55
20260505150445 17 205 4.8 20.9 0.00 0.00 0.00 56
20260505140415 15 202 8.0 14.5 0.00 0.00 0.00 58
20260505124829 12 89 3.2 9.7 0.00 0.00 0.00 65
20260505124326 13 126 4.8 9.7 0.00 0.00 0.00 60
20260505123822 14 226 9.7 9.7 0.00 0.00 0.00 59
20260505123318 14 250 8.0 9.7 0.00 0.00 0.00 59
20260505122815 15 186 4.8 9.7 0.00 0.00 0.00 58
20260505122312 15 250 8.0 14.5 0.00 0.00 0.00 58
20260505121808 15 228 4.8 12.9 0.00 0.00 0.00 57
20260505121306 15 246 8.0 16.1 0.00 0.00 0.00 57
20260505120802 15 213 4.8 17.7 0.00 0.00 0.00 57
20260505120258 15 234 9.7 9.7 0.00 0.00 0.00 57
20260505115756 15 210 4.8 11.3 0.00 0.00 0.00 57
20260505115254 14 259 3.2 8.0 0.00 0.00 0.00 57
20260505114751 14 224 3.2 9.7 0.00 0.00 0.00 57
20260505114247 14 230 8.0 8.0 0.00 0.00 0.00 57
20260505113744 14 301 3.2 6.4 0.00 0.00 0.00 57
20260505113241 13 227 6.4 11.3 0.00 0.00 0.00 59
20260505112737 13 106 3.2 6.4 0.00 0.00 0.00 58
20260505112235 12 107 4.8 8.0 0.00 0.00 0.00 62
20260505111735 12 108 3.2 4.8 0.00 0.00 0.00 60
20260505111231 13 70 3.2 6.4 0.00 0.00 0.00 59
20260505110727 15 88 4.8 6.4 0.00 0.00 0.00 55
20260505110225 15 159 1.6 8.0 0.00 0.00 0.00 52
20260505102200 12 106 3.2 4.8 0.00 0.00 0.00 61
20260505101659 12 215 3.2 8.0 0.00 0.00 0.00 63
20260505101154 12 115 3.2 6.4 0.00 0.00 0.00 64
20260505100650 11 78 4.8 4.8 0.00 0.00 0.00 66
20260505100148 11 63 4.8 4.8 0.00 0.00 0.00 66
20260505095643 12 75 1.6 6.4 0.00 0.00 0.00 64
20260505095141 12 130 3.2 4.8 0.00 0.00 0.00 63
20260505094637 12 35 3.2 3.2 0.00 0.00 0.00 64
20260505094133 12 129 0.0 3.2 0.00 0.00 0.00 63
20260505093630 12 205 3.2 3.2 0.00 0.00 0.00 62
20260505093127 12 269 0.0 8.0 0.00 0.00 0.00 63
20260505092624 12 141 0.0 4.8 0.00 0.00 0.00 62
20260505092123 12 110 3.2 4.8 0.00 0.00 0.00 61
20260505091619 13 102 3.2 6.4 0.00 0.00 0.00 57
20260505091118 14 63 6.4 6.4 0.00 0.00 0.00 55
20260505090615 15 122 1.6 8.0 0.00 0.00 0.00 54
20260505090113 14 249 14.5 16.1 0.00 0.00 0.00 56
20260505085610 13 166 0.0 9.7 0.00 0.00 0.00 58
20260505085109 12 33 9.7 9.7 0.00 0.00 0.00 61
20260505084606 12 88 4.8 6.4 0.00 0.00 0.00 61
20260505084104 12 310 4.8 4.8 0.00 0.00 0.00 65
20260505083601 11 83 3.2 4.8 0.00 0.00 0.00 65
20260505083057 11 134 1.6 4.8 0.00 0.00 0.00 65
20260505082553 11 162 1.6 1.6 0.00 0.00 0.00 66
20260505082050 12 89 0.0 4.8 0.00 0.00 0.00 65
20260505081547 12 127 3.2 4.8 0.00 0.00 0.00 66
20260505081044 12 162 1.6 3.2 0.00 0.00 0.00 66
20260505080540 12 160 0.0 1.6 0.00 0.00 0.00 66
20260505080037 12 6 0.0 1.6 0.00 0.00 0.00 66
20260505075533 12 89 3.2 3.2 0.00 0.00 0.00 66
20260505075030 12 139 1.6 1.6 0.00 0.00 0.00 67
20260505074527 12 129 0.0 1.6 0.00 0.00 0.00 66
20260505074024 12 106 0.0 3.2 0.00 0.00 0.00 65
20260505073521 12 69 0.0 0.0 0.00 0.00 0.00 64
20260505073020 12 35 0.0 3.2 0.00 0.00 0.00 64
20260505072515 12 48 3.2 4.8 0.00 0.00 0.00 63
20260505072011 12 106 3.2 3.2 0.00 0.00 0.00 63
20260505071507 13 132 1.6 3.2 0.00 0.00 0.00 61
20260505071005 12 154 3.2 3.2 0.00 0.00 0.00 65
20260505070502 12 173 0.0 1.6 0.00 0.00 0.00 65
20260505065957 12 47 0.0 3.2 0.00 0.00 0.00 64
20260505065454 12 196 0.0 3.2 0.00 0.00 0.00 64
20260505064951 12 222 0.0 3.2 0.00 0.00 0.00 64
20260505064448 12 145 0.0 0.0 0.00 0.00 0.00 62
20260505063946 13 47 3.2 3.2 0.00 0.00 0.00 62
20260505063442 13 72 3.2 4.8 0.00 0.00 0.00 60
20260505062939 13 165 1.6 3.2 0.00 0.00 0.00 60
20260505062436 13 94 1.6 3.2 0.00 0.00 0.00 59
20260505061933 13 78 3.2 3.2 0.00 0.00 0.00 58
20260505061431 13 129 0.0 3.2 0.00 0.00 0.00 57
20260505060928 13 25 3.2 3.2 0.00 0.00 0.00 59
20260505060425 14 180 1.6 1.6 0.00 0.00 0.00 58
20260505055921 15 143 0.0 3.2 0.00 0.00 0.00 56
20260505055418 15 129 3.2 3.2 0.00 0.00 0.00 54
20260505054914 15 119 1.6 3.2 0.00 0.00 0.00 52
20260505054412 16 129 3.2 3.2 0.00 0.00 0.00 51
20260505053910 16 64 8.0 8.0 0.00 0.00 0.00 50
20260505053407 17 92 4.8 4.8 0.00 0.00 0.00 48
20260505052903 17 32 3.2 3.2 0.00 0.00 0.00 45
20260505052400 18 127 0.0 8.0 0.00 0.00 0.00 44
20260505051857 18 259 3.2 4.8 0.00 0.00 0.00 44
20260505051354 18 89 0.0 6.4 0.00 0.00 0.00 44
20260505050853 18 157 3.2 4.8 0.00 0.00 0.00 43
20260505050351 18 349 3.2 14.5 0.00 0.00 0.00 42
20260505041318 19 220 4.8 14.5 0.00 0.00 0.00 41
20260505040815 19 230 11.3 19.3 0.00 0.00 0.00 40
20260505040313 19 245 8.0 14.5 0.00 0.00 0.00 40
20260505035809 18 215 0.0 12.9 0.00 0.00 0.00 41
20260505035305 19 334 6.4 12.9 0.00 0.00 0.00 40
20260505034803 19 234 4.8 11.3 0.00 0.00 0.00 40
20260505034259 19 203 12.9 14.5 0.00 0.00 0.00 40
20260505033756 19 230 14.5 19.3 0.00 0.00 0.00 39
20260505033253 19 241 6.4 8.0 0.00 0.00 0.00 39
20260505032751 19 184 3.2 6.4 0.00 0.00 0.00 40
20260505032247 19 316 6.4 6.4 0.00 0.00 0.00 39
20260505031744 20 322 0.0 6.4 0.00 0.00 0.00 39
20260505031241 20 288 3.2 8.0 0.00 0.00 0.00 39
20260505030738 20 280 4.8 9.7 0.00 0.00 0.00 38
20260505030234 20 257 6.4 17.7 0.00 0.00 0.00 37
20260505025730 20 234 12.9 20.9 0.00 0.00 0.00 36
20260505025228 20 234 14.5 16.1 0.00 0.00 0.00 36
20260505024726 20 223 12.9 20.9 0.00 0.00 0.00 36
20260505024223 21 239 3.2 9.7 0.00 0.00 0.00 35
20260505023720 21 243 22.5 24.1 0.00 0.00 0.00 34
20260505023217 21 236 12.9 20.9 0.00 0.00 0.00 34
20260505022715 21 236 6.4 19.3 0.00 0.00 0.00 34
20260505022211 21 245 16.1 20.9 0.00 0.00 0.00 33
20260505021708 21 265 9.7 14.5 0.00 0.00 0.00 32
20260505021205 21 247 17.7 24.1 0.00 0.00 0.00 32
20260505020701 21 249 9.7 20.9 0.00 0.00 0.00 32
20260505020157 21 252 11.3 22.5 0.00 0.00 0.00 30
20260505015654 22 334 3.2 19.3 0.00 0.00 0.00 31
20260505015151 22 265 8.0 17.7 0.00 0.00 0.00 30
20260505014648 23 319 4.8 20.9 0.00 0.00 0.00 30
20260505014145 23 249 4.8 17.7 0.00 0.00 0.00 30
20260505013642 23 266 4.8 25.7 0.00 0.00 0.00 30
20260505013139 23 238 9.7 14.5 0.00 0.00 0.00 30
20260505012637 23 287 4.8 17.7 0.00 0.00 0.00 29
20260505012134 23 295 4.8 19.3 0.00 0.00 0.00 29
20260505011630 23 246 11.3 22.5 0.00 0.00 0.00 29
20260505011128 23 247 8.0 32.2 0.00 0.00 0.00 28
20260505010627 24 264 8.0 19.3 0.00 0.00 0.00 28
20260505010125 24 303 14.5 20.9 0.00 0.00 0.00 26
20260505005620 25 230 4.8 14.5 0.00 0.00 0.00 28
20260505005118 24 241 11.3 19.3 0.00 0.00 0.00 28
20260505004615 24 250 9.7 29.0 0.00 0.00 0.00 27
20260505004112 24 298 22.5 25.7 0.00 0.00 0.00 27
20260505003609 25 294 11.3 17.7 0.00 0.00 0.00 27
20260505003106 25 243 9.7 20.9 0.00 0.00 0.00 28
20260505002602 24 331 8.0 20.9 0.00 0.00 0.00 29
20260505002101 25 316 4.8 20.9 0.00 0.00 0.00 29
20260505001557 25 324 3.2 20.9 0.00 0.00 0.00 29
20260505001055 25 251 16.1 19.3 0.00 0.00 0.00 29
20260505000552 25 246 14.5 24.1 0.00 0.00 0.00 30
20260505000049 25 235 12.9 33.8 0.00 0.00 0.00 30
20260504235546 24 295 8.0 30.6 0.00 0.00 0.00 29
20260504235043 25 315 9.7 20.9 0.00 0.00 0.00 29
20260504234540 25 293 16.1 22.5 0.00 0.00 0.00 30
20260504234037 25 296 4.8 19.3 0.00 0.00 0.00 29
20260504233532 24 285 11.3 25.7 0.00 0.00 0.00 31
20260504233029 25 286 8.0 22.5 0.00 0.00 0.00 30
20260504232526 25 297 6.4 14.5 0.00 0.00 0.00 30
20260504232024 25 288 11.3 24.1 0.00 0.00 0.00 31
20260504231520 25 235 9.7 33.8 0.00 0.00 0.00 30
20260504231016 25 254 6.4 19.3 0.00 0.00 0.00 30
20260504230513 25 240 14.5 24.1 0.00 0.00 0.00 29
20260504230012 25 281 17.7 20.9 0.00 0.00 0.00 29
20260504225508 25 276 11.3 22.5 0.00 0.00 0.00 29
20260504225005 25 224 12.9 35.4 0.00 0.00 0.00 28
20260504224502 25 250 12.9 24.1 0.00 0.00 0.00 28
20260504223959 25 251 27.4 41.8 0.00 0.00 0.00 27
20260504223455 25 242 24.1 27.4 0.00 0.00 0.00 26
20260504222951 24 294 12.9 27.4 0.00 0.00 0.00 26
20260504222449 25 293 14.5 32.2 0.00 0.00 0.00 26
20260504221946 25 238 22.5 30.6 0.00 0.00 0.00 26
20260504221443 25 299 20.9 30.6 0.00 0.00 0.00 25
20260504220940 25 316 16.1 20.9 0.00 0.00 0.00 23
20260504220436 24 12 9.7 33.8 0.00 0.00 0.00 24
20260504215934 24 284 17.7 35.4 0.00 0.00 0.00 23
20260504215431 24 309 12.9 40.2 0.00 0.00 0.00 22
20260504214927 25 320 22.5 33.8 0.00 0.00 0.00 24
20260504214423 25 349 14.5 29.0 0.00 0.00 0.00 25
20260504213920 25 306 19.3 41.8 0.00 0.00 0.00 24
20260504213416 25 287 9.7 29.0 0.00 0.00 0.00 24
20260504212914 25 323 16.1 29.0 0.00 0.00 0.00 25
20260504212409 25 315 27.4 32.2 0.00 0.00 0.00 27
20260504211908 25 318 14.5 25.7 0.00 0.00 0.00 28
20260504211403 25 266 25.7 32.2 0.00 0.00 0.00 27
20260504210900 25 9 25.7 35.4 0.00 0.00 0.00 26
20260504210357 25 317 16.1 32.2 0.00 0.00 0.00 27
20260504205854 25 8 16.1 27.4 0.00 0.00 0.00 25
20260504205352 25 15 17.7 32.2 0.00 0.00 0.00 29
20260504204850 25 305 16.1 24.1 0.00 0.00 0.00 29
20260504204349 25 313 9.7 20.9 0.00 0.00 0.00 27
20260504203848 25 307 11.3 29.0 0.00 0.00 0.00 27
20260504203344 25 317 24.1 35.4 0.00 0.00 0.00 27
20260504202840 25 326 16.1 25.7 0.00 0.00 0.00 28
20260504202337 25 329 14.5 37.0 0.00 0.00 0.00 27
20260504201833 25 295 20.9 29.0 0.00 0.00 0.00 27
20260504201331 26 335 4.8 19.3 0.00 0.00 0.00 28
20260504200828 25 239 9.7 20.9 0.00 0.00 0.00 29
20260504200325 25 257 9.7 29.0 0.00 0.00 0.00 29
20260504195821 25 267 8.0 17.7 0.00 0.00 0.00 31
20260504195317 25 315 11.3 20.9 0.00 0.00 0.00 30
20260504194814 25 296 4.8 20.9 0.00 0.00 0.00 31
20260504194310 24 322 19.3 27.4 0.00 0.00 0.00 29
20260504193806 25 304 14.5 22.5 0.00 0.00 0.00 29
20260504193304 25 251 11.3 16.1 0.00 0.00 0.00 29
20260504192802 25 298 9.7 19.3 0.00 0.00 0.00 32
20260504192300 25 284 11.3 22.5 0.00 0.00 0.00 29
20260504191758 25 23 12.9 25.7 0.00 0.00 0.00 29
20260504191255 25 294 14.5 16.1 0.00 0.00 0.00 37
20260504190750 25 20 6.4 9.7 0.00 0.00 0.00 37
20260504190247 24 347 6.4 24.1 0.00 0.00 0.00 39
20260504185744 25 37 6.4 12.9 0.00 0.00 0.00 33
20260504185241 23 42 3.2 25.7 0.00 0.00 0.00 34
20260504184737 25 259 8.0 17.7 0.00 0.00 0.00 36
20260504184233 25 16 9.7 11.3 0.00 0.00 0.00 39
20260504183729 25 243 9.7 22.5 0.00 0.00 0.00 35
20260504183226 23 288 1.6 20.9 0.00 0.00 0.00 38
20260504182724 22 229 9.7 9.7 0.00 0.00 0.00 46
20260504182221 22 104 3.2 9.7 0.00 0.00 0.00 47
20260504181718 22 44 4.8 8.0 0.00 0.00 0.00 46
20260504181216 21 42 9.7 12.9 0.00 0.00 0.00 47
20260504180715 21 26 6.4 14.5 0.00 0.00 0.00 50
20260504180213 21 11 4.8 8.0 0.00 0.00 0.00 48
20260504175710 20 103 6.4 19.3 0.00 0.00 0.00 49
20260504175207 22 40 8.0 9.7 0.00 0.00 0.00 46
20260504174704 20 28 3.2 8.0 0.00 0.00 0.00 50
20260504174202 20 47 6.4 8.0 0.00 0.00 0.00 51
20260504173658 20 224 1.6 6.4 0.00 0.00 0.00 50
20260504173155 20 29 11.3 12.9 0.00 0.00 0.00 50
20260504172652 19 23 3.2 8.0 0.00 0.00 0.00 51
20260504172148 18 39 6.4 8.0 0.00 0.00 0.00 53
20260504171645 18 23 8.0 9.7 0.00 0.00 0.00 53
20260504171143 18 142 6.4 8.0 0.00 0.00 0.00 52
20260504170638 18 38 4.8 11.3 0.00 0.00 0.00 53
20260504170136 18 357 1.6 4.8 0.00 0.00 0.00 50